EW8502 Weather Reports


time (UTC)temp
F
wind
direction
speed
knots
gust
knots
rain 1hr
in
rain 24hr
in
rain mn
in
humidity
%
barometer
mb
20260504194521 64 175 0.0 7.0 0.00 0.00 0.00 54 1008.6
20260504193019 65 215 0.0 7.0 0.00 0.00 0.00 52 1008.8
20260504191524 65 184 0.9 7.8 0.00 0.00 0.00 51 1008.8
20260504190018 65 165 0.9 8.7 0.00 0.00 0.00 50 1008.9
20260504184514 65 182 0.0 13.0 0.00 0.00 0.00 50 1009.1
20260504183010 66 152 0.9 7.8 0.00 0.00 0.00 49 1009.1
20260504181507 66 171 0.0 5.2 0.00 0.00 0.00 50 1009.3
20260504180007 66 165 0.0 1.7 0.00 0.00 0.00 50 1009.4
20260504174505 67 161 0.0 2.6 0.00 0.00 0.00 50 1009.6
20260504173004 67 148 0.9 7.8 0.00 0.00 0.00 47 1009.4
20260504171523 66 181 0.9 13.0 0.00 0.00 0.00 46 1009.8
20260504081510 48 269 0.0 0.0 0.00 0.00 0.00 63 1011.3
20260504060111 45 269 0.0 0.0 0.00 0.00 0.00 69 1010.8
20260504044544 43 269 0.0 0.0 0.00 0.00 0.00 68 1010.6
20260504043039 43 269 0.0 0.0 0.00 0.00 0.00 66 1010.5
20260504041536 43 269 0.0 0.0 0.00 0.00 0.00 65 1010.4
20260504040035 44 269 0.0 0.0 0.00 0.00 0.00 63 1010.5
20260504034535 44 269 0.0 0.0 0.00 0.00 0.00 62 1010.5
20260504033038 44 269 0.0 0.0 0.00 0.00 0.00 62 1010.3
20260504031533 44 269 0.0 0.0 0.00 0.00 0.00 59 1010.2
20260504030032 45 269 0.0 0.0 0.00 0.00 0.00 59 1010.2
20260504024532 45 269 0.0 0.0 0.00 0.00 0.00 58 1010.2
20260504023031 46 269 0.0 0.0 0.00 0.00 0.00 56 1010.3
20260504021530 46 269 0.0 0.0 0.00 0.00 0.00 55 1010.2
20260504020030 47 269 0.0 0.0 0.00 0.00 0.00 54 1010.2
20260504014541 48 269 0.0 0.0 0.00 0.00 0.00 53 1010.2
20260504013027 49 269 0.0 0.0 0.00 0.00 0.00 51 1010.1
20260504011527 50 269 0.0 0.0 0.00 0.00 0.00 50 1009.9
20260504010025 51 269 0.0 0.0 0.00 0.00 0.00 48 1009.7
20260504004524 52 269 0.0 0.0 0.00 0.00 0.00 46 1009.5
20260504003021 53 269 0.0 0.0 0.00 0.00 0.00 43 1009.1
20260504001522 54 269 0.0 0.0 0.00 0.00 0.00 42 1009.0
20260504000037 55 269 0.0 0.0 0.00 0.00 0.00 39 1008.7
20260503234519 56 269 0.0 0.0 0.00 0.00 0.00 38 1008.5
20260503233021 56 269 0.0 0.0 0.00 0.00 0.00 36 1008.4
20260503231518 56 269 0.0 0.0 0.00 0.00 0.00 35 1008.3
20260503230022 57 265 0.0 0.0 0.00 0.00 0.00 35 1008.2
20260503224517 57 265 0.0 0.0 0.00 0.00 0.00 36 1008.1
20260503223016 57 18 0.0 0.9 0.00 0.00 0.00 35 1008.1
20260503221516 57 346 0.0 0.9 0.00 0.00 0.00 36 1008.0
20260503220020 57 281 0.0 7.0 0.00 0.00 0.00 34 1008.0
20260503214524 57 302 0.0 0.9 0.00 0.00 0.00 33 1008.0
20260503213015 57 217 0.0 4.3 0.00 0.00 0.00 34 1007.8
20260503211514 58 215 0.0 3.5 0.00 0.00 0.00 35 1007.7
20260503210035 58 14 0.0 0.9 0.00 0.00 0.00 36 1007.7
20260503204513 57 319 0.0 3.5 0.00 0.00 0.00 35 1007.6
20260503203029 57 304 0.0 0.9 0.00 0.00 0.00 36 1007.7
20260503201533 57 94 0.0 0.9 0.00 0.00 0.00 38 1007.9
20260503200026 56 205 0.0 2.6 0.00 0.00 0.00 39 1008.0